Tillbaka till svenska Fidonet
English   Information   Debug  
FILM   0/18
FNEWS_PUBLISH   4178
FN_SYSOP   41525
FN_SYSOP_OLD1   71952
FTP_FIDO   0/2
FTSC_PUBLIC   0/13569
FUNNY   0/4886
GENEALOGY.EUR   0/71
GET_INFO   105
GOLDED   0/408
HAM   0/16052
HOLYSMOKE   0/6791
HOT_SITES   0/1
HTMLEDIT   0/71
HUB203   466
HUB_100   264
HUB_400   39
HUMOR   0/29
IC   0/2851
INTERNET   0/424
INTERUSER   0/3
IP_CONNECT   719
JAMNNTPD   0/233
JAMTLAND   0/47
KATTY_KORNER   0/41
LAN   0/16
LINUX-USER   0/19
LINUXHELP   0/1155
LINUX   0/22010
LINUX_BBS   0/957
mail   18.68
mail_fore_ok   249
MENSA   0/341
MODERATOR   0/102
MONTE   0/992
MOSCOW_OKLAHOMA   0/1245
MUFFIN   0/783
MUSIC   0/321
N203_STAT   898
N203_SYSCHAT   313
NET203   321
NET204   69
NET_DEV   0/10
NORD.ADMIN   0/101
NORD.CHAT   0/2572
NORD.FIDONET   189
NORD.HARDWARE   0/28
NORD.KULTUR   0/114
NORD.PROG   0/32
NORD.SOFTWARE   0/88
NORD.TEKNIK   0/58
NORD   0/453
OCCULT_CHAT   0/93
OS2BBS   0/787
OS2DOSBBS   0/580
OS2HW   0/42
OS2INET   0/37
OS2LAN   0/134
OS2PROG   0/36
OS2REXX   0/113
OS2USER-L   207
OS2   0/4784
OSDEBATE   0/18996
PASCAL   0/490
PERL   0/457
PHP   0/45
POINTS   0/405
POLITICS   0/29554
POL_INC   0/14731
PSION   103
R20_ADMIN   1117
R20_AMATORRADIO   0/2
R20_BEST_OF_FIDONET   13
R20_CHAT   0/893
R20_DEPP   0/3
R20_DEV   399
R20_ECHO2   1379
R20_ECHOPRES   0/35
R20_ESTAT   0/719
R20_FIDONETPROG...
...RAM.MYPOINT
  0/2
R20_FIDONETPROGRAM   0/22
R20_FIDONET   0/248
R20_FILEFIND   0/24
R20_FILEFOUND   0/22
R20_HIFI   0/3
R20_INFO2   2731
R20_INTERNET   0/12940
R20_INTRESSE   0/60
R20_INTR_KOM   0/99
R20_KANDIDAT.CHAT   42
R20_KANDIDAT   28
R20_KOM_DEV   112
R20_KONTROLL   0/13049
R20_KORSET   0/18
R20_LOKALTRAFIK   0/24
R20_MODERATOR   0/1852
R20_NC   76
R20_NET200   245
R20_NETWORK.OTH...
...ERNETS
  0/13
R20_OPERATIVSYS...
...TEM.LINUX
  0/44
R20_PROGRAMVAROR   0/1
R20_REC2NEC   534
R20_SFOSM   0/340
R20_SF   0/108
R20_SPRAK.ENGLISH   0/1
R20_SQUISH   107
R20_TEST   2
R20_WORST_OF_FIDONET   12
RAR   0/9
RA_MULTI   106
RA_UTIL   0/162
REGCON.EUR   0/2055
REGCON   0/13
SCIENCE   0/1206
SF   0/239
SHAREWARE_SUPPORT   0/5146
SHAREWRE   0/14
SIMPSONS   0/169
STATS_OLD1   0/2539.065
STATS_OLD2   0/2530
STATS_OLD3   0/2395.095
STATS_OLD4   0/1692.25
SURVIVOR   0/495
SYSOPS_CORNER   0/3
SYSOP   0/84
TAGLINES   0/112
TEAMOS2   0/4530
TECH   0/2617
TEST.444   0/105
TRAPDOOR   0/19
TREK   0/755
TUB   0/290
UFO   0/40
UNIX   0/1316
USA_EURLINK   0/102
USR_MODEMS   0/1
VATICAN   0/2740
VIETNAM_VETS   0/14
VIRUS   0/378
VIRUS_INFO   0/201
VISUAL_BASIC   0/473
WHITEHOUSE   0/5187
WIN2000   0/101
WIN32   0/30
WIN95   0/4276
WIN95_OLD1   0/70272
WINDOWS   0/1517
WWB_SYSOP   0/419
WWB_TECH   0/810
ZCC-PUBLIC   0/1
ZEC   4

 
4DOS   0/134
ABORTION   0/7
ALASKA_CHAT   0/506
ALLFIX_FILE   0/1313
ALLFIX_FILE_OLD1   0/7997
ALT_DOS   0/152
AMATEUR_RADIO   0/1039
AMIGASALE   0/14
AMIGA   0/331
AMIGA_INT   0/1
AMIGA_PROG   0/20
AMIGA_SYSOP   0/26
ANIME   0/15
ARGUS   0/924
ASCII_ART   0/340
ASIAN_LINK   0/651
ASTRONOMY   0/417
AUDIO   0/92
AUTOMOBILE_RACING   0/105
BABYLON5   0/17862
BAG   135
BATPOWER   0/361
BBBS.ENGLISH   0/382
BBSLAW   0/109
BBS_ADS   0/5290
BBS_INTERNET   0/507
BIBLE   0/3563
BINKD   0/1119
BINKLEY   0/215
BLUEWAVE   0/2173
CABLE_MODEMS   0/25
CBM   0/46
CDRECORD   0/66
CDROM   0/20
CLASSIC_COMPUTER   0/378
COMICS   0/15
CONSPRCY   0/899
COOKING   28107
COOKING_OLD1   0/24719
COOKING_OLD2   0/40862
COOKING_OLD3   0/37489
COOKING_OLD4   0/35496
COOKING_OLD5   9370
C_ECHO   0/189
C_PLUSPLUS   0/31
DIRTY_DOZEN   0/201
DOORGAMES   0/2006
DOS_INTERNET   0/196
duplikat   6000
ECHOLIST   0/18295
EC_SUPPORT   0/318
ELECTRONICS   0/359
ELEKTRONIK.GER   1534
ENET.LINGUISTIC   0/13
ENET.POLITICS   0/4
ENET.SOFT   0/11701
ENET.SYSOP   33793
ENET.TALKS   0/32
ENGLISH_TUTOR   0/2000
EVOLUTION   0/1335
FDECHO   0/217
FDN_ANNOUNCE   0/7068
FIDONEWS   23490
FIDONEWS_OLD1   0/49742
FIDONEWS_OLD2   0/35949
FIDONEWS_OLD3   0/30874
FIDONEWS_OLD4   0/37224
FIDO_SYSOP   12841
FIDO_UTIL   0/180
FILEFIND   0/209
FILEGATE   0/212
Möte HAM, 16052 texter
 lista första sista föregående nästa
Text 3522, 880 rader
Skriven 2010-02-26 01:00:18 av Amsat List (1:323/120.0)
Ärende: [keps]  orb10056.amsa
=============================
[keps]  orb10056.amsa

Return-Path: <keps-bounces@amsat.org>
X-Rcpt: craig.healy@chowda.com
X-UIDL: 1267162917.5696

SB KEPS @ AMSAT  $ORB10056.O
Orbital Elements  10056.OSCAR

HR AMSAT ORBITAL ELEMENTS FOR OSCAR SATELLITES
FROM WA5QGD FORT WORTH,TX February 25, 2010
Send Subscribe/unsubscribe to KEPS at http://www.amsat.org/mailman/listinfo/kep
BID: ORB10056.O
TO ALL RADIO AMATEURS BT

Satellite: AO-07
Catalog number: 07530
Epoch time:      10056.63353297
Element set:     713
Inclination:      101.4104 deg
RA of node:       076.8035 deg
Eccentricity:    0.0012025
Arg of perigee:   132.0448 deg
Mean anomaly:     228.1642 deg
Mean motion:   12.53577727 rev/day
Decay rate:       -2.7e-07 rev/day^2
Epoch rev:           61447
Checksum:              269

Satellite: FO-29
Catalog number: 24278
Epoch time:      10055.62411632
Element set:     254
Inclination:      098.5208 deg
RA of node:       260.2776 deg
Eccentricity:    0.0351345
Arg of perigee:   055.9179 deg
Mean anomaly:     307.4783 deg
Mean motion:   13.52947851 rev/day
Decay rate:        1.0e-08 rev/day^2
Epoch rev:           66788
Checksum:              325

Satellite: SO-33
Catalog number: 25509
Epoch time:      10055.45016322
Element set:     656
Inclination:      031.4328 deg
RA of node:       066.0282 deg
Eccentricity:    0.0353762
Arg of perigee:   024.1404 deg
Mean anomaly:     337.5391 deg
Mean motion:   14.28291608 rev/day
Decay rate:       3.20e-06 rev/day^2
Epoch rev:           59192
Checksum:              277

Satellite: RS-22
Catalog number: 27939
Epoch time:      10056.19447761
Element set:      18
Inclination:      097.9099 deg
RA of node:       286.3248 deg
Eccentricity:    0.0014532
Arg of perigee:   056.1468 deg
Mean anomaly:     304.1129 deg
Mean motion:   14.63385216 rev/day
Decay rate:       1.03e-06 rev/day^2
Epoch rev:           34257
Checksum:              309

Satellite: VO-52
Catalog number: 28650
Epoch time:      10056.10061577
Element set:     443
Inclination:      097.7080 deg
RA of node:       113.8326 deg
Eccentricity:    0.0025930
Arg of perigee:   283.9061 deg
Mean anomaly:     075.9258 deg
Mean motion:   14.81688273 rev/day
Decay rate:       -1.2e-07 rev/day^2
Epoch rev:           26009
Checksum:              297

Satellite: SO-67
Catalog number: 35870
Epoch time:      10056.79905536
Element set:     479
Inclination:      097.3482 deg
RA of node:       108.6502 deg
Eccentricity:    0.0012951
Arg of perigee:   088.1532 deg
Mean anomaly:     024.3020 deg
Mean motion:   15.22906810 rev/day
Decay rate:       9.62e-06 rev/day^2
Epoch rev:            2451
Checksum:              296

Satellite: HO-68
Catalog number: 36122
Epoch time:      10056.74418607
Element set:     142
Inclination:      100.4848 deg
RA of node:       118.2436 deg
Eccentricity:    0.0007177
Arg of perigee:   229.9221 deg
Mean anomaly:     130.1267 deg
Mean motion:   13.16279839 rev/day
Decay rate:       -4.5e-07 rev/day^2
Epoch rev:             955
Checksum:              292

/EX
SB KEPS @ AMSAT  $ORB10056.D
Orbital Elements  10056.MICROS

HR AMSAT ORBITAL ELEMENTS FOR THE MICROSATS
FROM WA5QGD FORT WORTH,TX February 25, 2010
Send Subscribe/unsubscribe to KEPS at http://www.amsat.org/mailman/listinfo/kep
BID: ORB10056.D
TO ALL RADIO AMATEURS BT

Satellite: UO-11
Catalog number: 14781
Epoch time:      10056.11440102
Element set:     183
Inclination:      098.0709 deg
RA of node:       107.4339 deg
Eccentricity:    0.0007980
Arg of perigee:   240.1450 deg
Mean anomaly:     119.8976 deg
Mean motion:   14.79772804 rev/day
Decay rate:       2.73e-06 rev/day^2
Epoch rev:           39523
Checksum:              294

Satellite: AO-16
Catalog number: 20439
Epoch time:      10055.89241841
Element set:     831
Inclination:      098.3180 deg
RA of node:       018.3014 deg
Eccentricity:    0.0011575
Arg of perigee:   136.3586 deg
Mean anomaly:     223.8517 deg
Mean motion:   14.31849803 rev/day
Decay rate:        5.1e-07 rev/day^2
Epoch rev:            4931
Checksum:              285

Satellite: LO-19
Catalog number: 20442
Epoch time:      10056.74667364
Element set:     742
Inclination:      098.2799 deg
RA of node:       025.3762 deg
Eccentricity:    0.0012820
Arg of perigee:   128.7657 deg
Mean anomaly:     231.4692 deg
Mean motion:   14.32082373 rev/day
Decay rate:       -1.5e-07 rev/day^2
Epoch rev:            4960
Checksum:              305

Satellite: AO-27
Catalog number: 22825
Epoch time:      10056.84571807
Element set:     465
Inclination:      098.4719 deg
RA of node:       007.7474 deg
Eccentricity:    0.0007714
Arg of perigee:   233.6134 deg
Mean anomaly:     126.4335 deg
Mean motion:   14.29287270 rev/day
Decay rate:      -1.05e-06 rev/day^2
Epoch rev:           85614
Checksum:              310

Satellite: IO-26
Catalog number: 22826
Epoch time:      10056.86105389
Element set:     201
Inclination:      098.4661 deg
RA of node:       008.4070 deg
Eccentricity:    0.0008166
Arg of perigee:   229.2654 deg
Mean anomaly:     130.7824 deg
Mean motion:   14.29542221 rev/day
Decay rate:        3.0e-07 rev/day^2
Epoch rev:           85625
Checksum:              284

Satellite: GO-32
Catalog number: 25397
Epoch time:      10056.80722328
Element set:     121
Inclination:      098.3183 deg
RA of node:       070.3804 deg
Eccentricity:    0.0000845
Arg of perigee:   173.1533 deg
Mean anomaly:     186.9656 deg
Mean motion:   14.23171564 rev/day
Decay rate:       -8.3e-07 rev/day^2
Epoch rev:           60420
Checksum:              283

